EW5035 Weather Reports


time (UTC)temp
F
wind
direction
speed
knots
gust
knots
rain 1hr
in
rain 24hr
in
rain mn
in
humidity
%
barometer
mb
20260902204558 74 223 4.3 13.0 0.00 0.00 0.00 36 1007.8
20260902204034 74 155 7.0 13.0 0.00 0.00 0.00 38 1007.8
20260902203534 74 172 5.2 12.2 0.00 0.00 0.00 38 1007.8
20260902203053 73 193 2.6 12.2 0.00 0.00 0.00 39 1007.9
20260902202536 73 167 4.3 9.6 0.00 0.00 0.00 39 1007.8
20260902202034 72 171 2.6 10.4 0.00 0.00 0.00 40 1008.1
20260902201601 71 186 3.5 14.8 0.00 0.00 0.00 41 1008.3
20260902201037 71 226 10.4 14.8 0.00 0.00 0.00 41 1008.2
20260902200535 71 237 7.8 13.9 0.00 0.00 0.00 40 1008.3
20260902200049 71 240 6.1 13.0 0.00 0.00 0.00 40 1008.4
20260902195534 71 211 7.8 15.6 0.00 0.00 0.00 41 1008.5
20260902195034 71 221 8.7 16.5 0.00 0.00 0.00 39 1008.5
20260902194602 71 246 8.7 16.5 0.00 0.00 0.00 41 1008.7
20260902194034 71 240 10.4 16.5 0.00 0.00 0.00 41 1008.7
20260902193537 70 209 8.7 15.6 0.00 0.00 0.00 42 1008.7
20260902193058 70 200 9.6 19.1 0.00 0.00 0.00 42 1008.7
20260902192537 70 227 8.7 19.1 0.00 0.00 0.00 42 1008.8
20260902192035 70 229 12.2 19.1 0.00 0.00 0.00 42 1008.8
20260902191557 70 190 8.7 14.8 0.00 0.00 0.00 42 1008.8
20260902191035 69 217 7.0 14.8 0.00 0.00 0.00 43 1008.9
20260902190534 69 171 9.6 14.8 0.00 0.00 0.00 43 1009.0
20260902190049 69 219 6.1 15.6 0.00 0.00 0.00 44 1009.0
20260902185537 69 178 7.8 15.6 0.00 0.00 0.00 45 1008.9
20260902185035 68 175 9.6 15.6 0.00 0.00 0.00 47 1008.9
20260902184555 68 198 10.4 18.2 0.00 0.00 0.00 46 1008.9
20260902184034 68 193 9.6 20.9 0.00 0.00 0.00 45 1009.0
20260902183534 68 199 13.0 20.9 0.00 0.00 0.00 44 1009.1
20260902183113 68 225 11.3 18.2 0.00 0.00 0.00 45 1009.1
20260902182533 68 191 13.0 18.2 0.00 0.00 0.00 45 1009.1
20260902182034 68 225 11.3 18.2 0.00 0.00 0.00 46 1009.1
20260902181555 67 207 13.0 18.2 0.00 0.00 0.00 47 1009.0
20260902181033 67 189 11.3 19.1 0.00 0.00 0.00 46 1009.1
20260902180535 68 179 9.6 19.1 0.00 0.00 0.00 46 1009.1
20260902180055 67 190 10.4 20.9 0.00 0.00 0.00 47 1009.1
20260902175534 67 208 14.8 20.9 0.00 0.00 0.00 46 1009.2
20260902175038 67 203 13.0 19.1 0.00 0.00 0.00 47 1009.2
20260902174548 67 214 13.0 19.1 0.00 0.00 0.00 46 1009.4
20260902174037 67 192 13.0 19.1 0.00 0.00 0.00 47 1009.5
20260902173531 67 202 10.4 18.2 0.00 0.00 0.00 48 1009.4
20260902173054 67 201 12.2 18.2 0.00 0.00 0.00 48 1009.4
20260902172534 66 188 11.3 18.2 0.00 0.00 0.00 50 1009.2
20260902172034 66 207 11.3 17.4 0.00 0.00 0.00 50 1009.3
20260902171604 66 238 12.2 20.0 0.00 0.00 0.00 51 1009.3
20260902171036 66 217 12.2 20.0 0.00 0.00 0.00 51 1009.5
20260902170534 66 242 12.2 20.0 0.00 0.00 0.00 51 1009.5
20260902170054 65 223 11.3 20.9 0.00 0.00 0.00 52 1009.5
20260902165533 65 186 11.3 20.9 0.00 0.00 0.00 52 1009.3
20260902165035 65 200 10.4 19.1 0.00 0.00 0.00 53 1009.1
20260902164553 64 205 13.0 19.1 0.00 0.00 0.00 52 1009.2
20260902164036 64 197 10.4 21.7 0.00 0.00 0.00 53 1009.2
20260902163535 64 194 12.2 21.7 0.00 0.00 0.00 54 1009.2
20260902163052 63 209 12.2 20.9 0.00 0.00 0.00 54 1009.1
20260902162534 63 202 13.9 20.9 0.00 0.00 0.00 56 1009.1
20260902162036 63 204 15.6 20.9 0.00 0.00 0.00 57 1009.2
20260902161556 62 214 13.0 18.2 0.00 0.00 0.00 58 1009.1
20260902161037 62 200 12.2 20.0 0.00 0.00 0.00 59 1009.2
20260902160531 62 202 11.3 20.0 0.00 0.00 0.00 59 1009.4
20260902160112 61 191 11.3 23.5 0.00 0.00 0.00 59 1009.4
20260902155535 61 198 14.8 23.5 0.00 0.00 0.00 60 1009.3
20260902155035 61 200 13.9 21.7 0.00 0.00 0.00 60 1009.4
20260902154557 61 154 13.9 20.0 0.00 0.00 0.00 59 1009.5
20260902154034 61 198 11.3 18.2 0.00 0.00 0.00 61 1009.5
20260902153536 61 182 12.2 20.9 0.00 0.00 0.00 61 1009.6
20260902153052 60 196 9.6 20.9 0.00 0.00 0.00 62 1009.6
20260902152535 60 178 11.3 19.1 0.00 0.00 0.00 64 1009.6
20260902152034 60 191 12.2 19.1 0.00 0.00 0.00 65 1009.5
20260902151605 60 191 11.3 17.4 0.00 0.00 0.00 65 1009.4
20260902151038 60 194 11.3 19.1 0.00 0.00 0.00 65 1009.5
20260902150534 59 169 11.3 19.1 0.00 0.00 0.00 66 1009.3
20260902150053 59 168 12.2 19.1 0.00 0.00 0.00 66 1009.5
20260902145535 59 184 9.6 17.4 0.00 0.00 0.00 67 1009.5
20260902145035 59 180 10.4 18.2 0.00 0.00 0.00 68 1009.5
20260902144606 59 181 9.6 18.2 0.00 0.00 0.00 68 1009.3
20260902144034 59 178 8.7 14.8 0.00 0.00 0.00 68 1009.3
20260902143535 59 190 8.7 13.9 0.00 0.00 0.00 68 1009.3
20260902143100 59 187 7.8 14.8 0.00 0.00 0.00 68 1009.2
20260902142534 59 193 8.7 17.4 0.00 0.00 0.00 68 1009.2
20260902142035 59 165 11.3 17.4 0.00 0.00 0.00 68 1009.2
20260902141555 59 171 12.2 17.4 0.00 0.00 0.00 68 1009.2
20260902141034 59 198 11.3 17.4 0.00 0.00 0.00 68 1009.2
20260902140536 59 189 8.7 17.4 0.00 0.00 0.00 68 1009.2
20260902140052 59 163 8.7 16.5 0.00 0.00 0.00 68 1009.1
20260902135534 59 172 10.4 19.1 0.00 0.00 0.00 68 1009.2
20260902135034 59 184 12.2 19.1 0.00 0.00 0.00 68 1009.0
20260902134551 58 171 9.6 13.9 0.00 0.00 0.00 69 1008.9
20260902134035 58 178 8.7 13.9 0.00 0.00 0.00 69 1009.2
20260902133535 58 189 9.6 13.9 0.00 0.00 0.00 69 1009.0
20260902133100 58 173 8.7 16.5 0.00 0.00 0.00 69 1009.1
20260902132535 58 165 7.8 18.2 0.00 0.00 0.00 69 1009.1
20260902132034 58 173 9.6 18.2 0.00 0.00 0.00 69 1009.1
20260902131556 58 167 10.4 21.7 0.00 0.00 0.00 69 1008.9
20260902131034 58 178 12.2 21.7 0.00 0.00 0.00 69 1008.8
20260902130534 59 188 13.0 19.1 0.00 0.00 0.00 68 1008.7
20260902130053 59 189 12.2 19.1 0.00 0.00 0.00 68 1008.8
20260902125535 59 192 12.2 17.4 0.00 0.00 0.00 68 1008.8
20260902125036 59 205 11.3 20.0 0.00 0.00 0.00 67 1008.6
20260902124549 59 186 13.0 20.0 0.00 0.00 0.00 67 1008.7
20260902124034 59 195 12.2 19.1 0.00 0.00 0.00 66 1008.7
20260902123534 59 198 12.2 18.2 0.00 0.00 0.00 66 1008.6
20260902123050 59 188 12.2 21.7 0.00 0.00 0.00 66 1008.7
20260902122534 60 182 13.0 21.7 0.00 0.00 0.00 66 1008.7
20260902122035 60 188 11.3 20.9 0.00 0.00 0.00 65 1008.5
20260902121554 60 186 11.3 19.1 0.00 0.00 0.00 65 1008.6
20260902121031 60 190 13.0 19.1 0.00 0.00 0.00 65 1008.6
20260902120535 60 202 11.3 17.4 0.00 0.00 0.00 64 1008.4
20260902120052 60 215 10.4 16.5 0.00 0.00 0.00 64 1008.5
20260902115534 60 215 9.6 15.6 0.00 0.00 0.00 64 1008.7
20260902115035 60 192 9.6 18.2 0.00 0.00 0.00 64 1008.9
20260902114554 60 194 11.3 18.2 0.00 0.00 0.00 64 1008.9
20260902114035 60 195 11.3 20.9 0.00 0.00 0.00 64 1009.1
20260902113535 60 194 10.4 20.9 0.00 0.00 0.00 64 1009.2
20260902113049 60 196 14.8 20.9 0.00 0.00 0.00 63 1009.2
20260902112534 60 191 13.9 20.0 0.00 0.00 0.00 64 1009.1
20260902112031 60 188 14.8 20.0 0.00 0.00 0.00 64 1009.0
20260902111555 60 173 13.0 20.9 0.00 0.00 0.00 64 1008.9
20260902111035 60 193 13.0 20.9 0.00 0.00 0.00 63 1008.7
20260902110534 60 182 12.2 21.7 0.00 0.00 0.00 63 1008.6
20260902110101 60 165 13.0 21.7 0.00 0.00 0.00 63 1008.3
20260902105535 60 187 10.4 18.2 0.00 0.00 0.00 63 1008.5
20260902105035 60 188 11.3 20.0 0.00 0.00 0.00 63 1008.6
20260902104553 60 165 13.0 22.6 0.00 0.00 0.00 63 1008.3
20260902104035 60 180 13.0 22.6 0.00 0.00 0.00 63 1008.0
20260902103535 60 202 13.0 23.5 0.00 0.00 0.00 63 1008.0
20260902103049 60 180 13.9 23.5 0.00 0.00 0.00 63 1008.1
20260902102531 60 181 12.2 22.6 0.00 0.00 0.00 63 1008.1
20260902102035 60 178 14.8 24.3 0.00 0.00 0.00 62 1008.0
20260902101554 60 192 16.5 24.3 0.00 0.00 0.00 62 1007.9
20260902101034 60 159 13.0 23.5 0.00 0.00 0.00 62 1008.0
20260902100539 60 184 13.0 21.7 0.00 0.00 0.00 62 1008.2
20260902100052 60 186 12.2 21.7 0.00 0.00 0.00 61 1008.1
20260902095537 60 169 12.2 19.1 0.00 0.00 0.00 61 1008.2
20260902095034 60 184 12.2 18.2 0.00 0.00 0.00 61 1008.0
20260902094553 60 148 10.4 16.5 0.00 0.00 0.00 60 1008.2
20260902094035 60 186 9.6 18.2 0.00 0.00 0.00 60 1008.0
20260902093536 61 162 10.4 18.2 0.00 0.00 0.00 60 1008.1
20260902093059 61 168 11.3 18.2 0.00 0.00 0.00 60 1007.9
20260902092534 61 187 9.6 21.7 0.00 0.00 0.00 60 1007.9
20260902092039 61 195 12.2 21.7 0.00 0.00 0.00 60 1008.0
20260902091558 61 185 11.3 24.3 0.00 0.00 0.00 60 1008.2
20260902091034 61 193 11.3 26.1 0.00 0.00 0.00 60 1008.1
20260902090534 61 173 12.2 26.1 0.00 0.00 0.00 59 1008.0
20260902090052 61 195 10.4 19.1 0.00 0.00 0.00 59 1008.2
20260902085534 61 177 10.4 22.6 0.00 0.00 0.00 59 1008.2
20260902085036 61 167 12.2 22.6 0.00 0.00 0.00 59 1008.2
20260902084556 62 167 12.2 22.6 0.00 0.00 0.00 59 1008.0
20260902084035 62 164 10.4 22.6 0.00 0.00 0.00 58 1008.0
20260902083538 62 158 13.9 23.5 0.00 0.00 0.00 58 1007.9
20260902083056 62 157 15.6 23.5 0.00 0.00 0.00 57 1007.9
20260902082534 62 176 12.2 20.0 0.00 0.00 0.00 57 1007.8
20260902082031 62 178 12.2 22.6 0.00 0.00 0.00 57 1007.8
20260902081554 62 147 10.4 24.3 0.00 0.00 0.00 56 1007.9
20260902081035 62 162 11.3 24.3 0.00 0.00 0.00 56 1007.9
20260902080535 62 167 12.2 21.7 0.00 0.00 0.00 56 1007.8
20260902080108 63 173 13.0 23.5 0.00 0.00 0.00 55 1007.8
20260902075537 63 156 15.6 23.5 0.00 0.00 0.00 55 1007.9
20260902075037 63 162 13.0 24.3 0.00 0.00 0.00 55 1007.9
20260902074558 63 171 12.2 26.1 0.00 0.00 0.00 55 1007.8
20260902074035 63 171 12.2 26.1 0.00 0.00 0.00 55 1007.8
20260902073534 63 166 12.2 20.9 0.00 0.00 0.00 54 1007.8
20260902073048 63 163 12.2 19.1 0.00 0.00 0.00 54 1007.8
20260902072534 63 158 7.0 17.4 0.00 0.00 0.00 53 1007.8
20260902072037 64 156 8.7 20.0 0.00 0.00 0.00 53 1007.9
20260902071554 64 165 13.0 20.0 0.00 0.00 0.00 53 1008.0
20260902071035 64 186 11.3 20.0 0.00 0.00 0.00 52 1008.0
20260902070535 64 149 11.3 20.9 0.00 0.00 0.00 52 1007.9
20260902070054 64 154 10.4 20.9 0.00 0.00 0.00 52 1007.7
20260902065538 64 173 13.0 20.9 0.00 0.00 0.00 52 1007.7
20260902065035 64 170 11.3 19.1 0.00 0.00 0.00 52 1007.8
20260902064554 64 171 10.4 20.9 0.00 0.00 0.00 52 1007.6
20260902064034 64 187 11.3 20.9 0.00 0.00 0.00 51 1007.4
20260902063535 65 165 14.8 21.7 0.00 0.00 0.00 51 1007.4
20260902063050 65 161 12.2 21.7 0.00 0.00 0.00 51 1007.4
20260902062537 65 159 11.3 18.2 0.00 0.00 0.00 51 1007.3
20260902062033 65 169 11.3 24.3 0.00 0.00 0.00 50 1007.4
20260902061612 65 167 10.4 24.3 0.00 0.00 0.00 50 1007.5
20260902061035 65 160 11.3 16.5 0.00 0.00 0.00 50 1007.3
20260902060534 65 157 10.4 15.6 0.00 0.00 0.00 50 1007.3
20260902060053 65 155 10.4 17.4 0.00 0.00 0.00 49 1007.2
20260902055536 65 155 9.6 17.4 0.00 0.00 0.00 49 1007.3
20260902055035 65 152 11.3 16.5 0.00 0.00 0.00 49 1007.3
20260902054559 66 170 10.4 14.8 0.00 0.00 0.00 49 1007.2
20260902054036 66 185 6.1 13.0 0.00 0.00 0.00 48 1007.2
20260902053536 66 185 8.7 14.8 0.00 0.00 0.00 47 1007.1
20260902053058 67 186 9.6 15.6 0.00 0.00 0.00 45 1007.0
20260902052534 67 186 9.6 16.5 0.00 0.00 0.00 44 1007.1
20260902052035 68 184 10.4 16.5 0.00 0.00 0.00 43 1007.1
20260902051600 68 188 8.7 13.9 0.00 0.00 0.00 42 1007.1
20260902051031 68 189 7.8 13.0 0.00 0.00 0.00 42 1007.0
20260902050537 69 189 7.0 13.0 0.00 0.00 0.00 41 1007.0
20260902050053 69 189 6.1 13.0 0.00 0.00 0.00 41 1006.9
20260902045534 70 189 7.8 12.2 0.00 0.00 0.00 40 1006.9
20260902045034 70 190 7.8 12.2 0.00 0.00 0.00 40 1006.8
20260902044602 70 192 7.0 13.0 0.00 0.00 0.00 40 1006.8
20260902044035 71 196 5.2 13.0 0.00 0.00 0.00 40 1006.7
20260902043534 72 196 7.8 13.9 0.00 0.00 0.00 39 1006.7
20260902043105 72 196 9.6 13.9 0.00 0.00 0.00 39 1006.7
20260902042534 72 205 5.2 10.4 0.00 0.00 0.00 38 1006.5
20260902042035 73 205 4.3 7.0 0.00 0.00 0.00 39 1006.2
20260902041556 72 205 4.3 7.0 0.00 0.00 0.00 39 1006.2
20260902041032 72 205 3.5 5.2 0.00 0.00 0.00 39 1006.2
20260902040534 72 205 3.5 5.2 0.00 0.00 0.00 39 1006.2
20260902040054 73 205 3.5 5.2 0.00 0.00 0.00 39 1006.2
20260902035538 72 205 3.5 6.1 0.00 0.00 0.00 39 1006.2
20260902035035 72 205 3.5 6.1 0.00 0.00 0.00 39 1006.3
20260902034602 72 205 2.6 6.1 0.00 0.00 0.00 39 1006.2
20260902034038 71 205 3.5 6.1 0.00 0.00 0.00 40 1006.2
20260902033534 70 205 2.6 6.1 0.00 0.00 0.00 41 1006.0
20260902033103 68 0 0.0 2.6 0.00 0.00 0.00 42 1005.9
20260902032535 69 0 0.9 2.6 0.00 0.00 0.00 42 1005.8
20260902032032 69 0 0.0 2.6 0.00 0.00 0.00 43 1005.7
20260902031601 69 0 0.0 2.6 0.00 0.00 0.00 42 1005.7
20260902031035 69 0 0.0 2.6 0.00 0.00 0.00 42 1005.6
20260902030537 69 205 0.0 3.5 0.00 0.00 0.00 41 1005.5
20260902030050 69 205 0.0 3.5 0.00 0.00 0.00 41 1005.7
20260902025535 69 205 0.9 2.6 0.00 0.00 0.00 42 1005.6
20260902025035 70 0 0.0 1.7 0.00 0.00 0.00 41 1005.6
20260902024550 71 0 0.0 1.7 0.00 0.00 0.00 39 1005.6
20260902024035 72 0 0.0 1.7 0.00 0.00 0.00 39 1005.6
20260902023534 72 0 0.0 1.7 0.00 0.00 0.00 38 1005.5
20260902023055 73 0 0.0 1.7 0.00 0.00 0.00 36 1005.3
20260902022535 75 0 0.0 4.3 0.00 0.00 0.00 36 1005.4
20260902022036 76 0 0.9 5.2 0.00 0.00 0.00 34 1005.4
20260902021602 76 205 3.5 6.1 0.00 0.00 0.00 35 1005.5
20260902021035 76 205 4.3 6.1 0.00 0.00 0.00 35 1005.5
20260902020535 76 205 5.2 6.1 0.00 0.00 0.00 34 1005.5
20260902020051 77 205 4.3 5.2 0.00 0.00 0.00 34 1005.5
20260902015534 77 205 4.3 5.2 0.00 0.00 0.00 33 1005.5
20260902015035 77 205 4.3 5.2 0.00 0.00 0.00 33 1005.6
20260902014600 77 205 3.5 5.2 0.00 0.00 0.00 33 1005.7
20260902014035 78 205 3.5 5.2 0.00 0.00 0.00 33 1005.7
20260902013535 78 205 3.5 4.3 0.00 0.00 0.00 33 1005.6
20260902013050 78 205 3.5 5.2 0.00 0.00 0.00 32 1005.7
20260902012535 78 205 2.6 5.2 0.00 0.00 0.00 32 1005.7
20260902012037 79 205 2.6 4.3 0.00 0.00 0.00 31 1005.7
20260902011550 79 205 1.7 4.3 0.00 0.00 0.00 31 1005.7
20260902011035 80 205 1.7 3.5 0.00 0.00 0.00 31 1005.8
20260902010535 80 205 0.9 4.3 0.00 0.00 0.00 31 1005.7
20260902010050 80 205 1.7 5.2 0.00 0.00 0.00 31 1005.7
20260902005534 80 205 1.7 6.1 0.00 0.00 0.00 30 1005.7
20260902005035 80 205 2.6 6.1 0.00 0.00 0.00 30 1005.8
20260902004550 80 205 2.6 5.2 0.00 0.00 0.00 31 1005.7
20260902004035 80 205 2.6 4.3 0.00 0.00 0.00 30 1005.8
20260902003536 80 205 0.9 3.5 0.00 0.00 0.00 31 1005.8
20260902003100 80 0 1.7 6.1 0.00 0.00 0.00 31 1005.7
20260902002534 80 205 3.5 6.1 0.00 0.00 0.00 30 1005.7
20260902002035 81 205 2.6 5.2 0.00 0.00 0.00 30 1005.7
20260902001551 81 0 0.0 7.0 0.00 0.00 0.00 30 1005.7
20260902001035 80 205 2.6 7.0 0.00 0.00 0.00 30 1005.7
20260902000534 80 205 3.5 7.8 0.00 0.00 0.00 30 1005.9
20260902000053 80 205 4.3 7.8 0.00 0.00 0.00 30 1005.9
20260901235536 79 205 3.5 7.0 0.00 0.00 0.00 31 1005.8
20260901235035 80 205 3.5 6.1 0.00 0.00 0.00 31 1005.9
20260901234557 80 205 2.6 6.1 0.00 0.00 0.00 30 1005.8
20260901234037 80 205 0.9 6.1 0.00 0.00 0.00 31 1005.9
20260901233626 79 0 2.6 7.8 0.00 0.00 0.00 32 1006.0
20260901233105 79 205 4.3 7.8 0.00 0.00 0.00 32 1006.0
20260901232533 80 205 1.7 5.2 0.00 0.00 0.00 31 1006.0
20260901232037 80 205 2.6 5.2 0.00 0.00 0.00 32 1006.0
20260901231551 79 205 0.9 5.2 0.00 0.00 0.00 32 1006.0
20260901231034 78 0 1.7 6.1 0.00 0.00 0.00 32 1006.0
20260901230536 78 205 3.5 7.8 0.00 0.00 0.00 32 1006.2
20260901230050 77 205 4.3 7.8 0.00 0.00 0.00 33 1006.3
20260901225534 77 205 2.6 7.0 0.00 0.00 0.00 33 1006.4
20260901225035 78 205 4.3 7.0 0.00 0.00 0.00 33 1006.4
20260901224559 78 205 3.5 7.0 0.00 0.00 0.00 34 1006.4
20260901224034 78 205 3.5 7.0 0.00 0.00 0.00 34 1006.5
20260901223535 78 205 2.6 6.1 0.00 0.00 0.00 36 1006.5
20260901223055 77 205 1.7 7.8 0.00 0.00 0.00 35 1006.5
20260901222536 77 205 3.5 7.8 0.00 0.00 0.00 35 1006.7
20260901222035 77 205 2.6 7.8 0.00 0.00 0.00 36 1006.7
20260901221617 77 205 1.7 6.1 0.00 0.00 0.00 37 1006.8
20260901221035 76 205 2.6 7.0 0.00 0.00 0.00 37 1006.8
20260901220534 76 205 4.3 7.0 0.00 0.00 0.00 37 1006.8
20260901220118 76 205 4.3 8.7 0.00 0.00 0.00 37 1006.8
20260901215535 76 205 3.5 8.7 0.00 0.00 0.00 37 1006.8
20260901215034 76 205 3.5 9.6 0.00 0.00 0.00 37 1006.9
20260901214559 76 205 5.2 10.4 0.00 0.00 0.00 37 1007.0
20260901214034 76 205 6.1 10.4 0.00 0.00 0.00 36 1007.1
20260901213535 75 205 5.2 10.4 0.00 0.00 0.00 39 1007.1
20260901213110 75 205 7.0 10.4 0.00 0.00 0.00 39 1007.2
20260901212535 74 205 7.0 10.4 0.00 0.00 0.00 38 1007.2
20260901212034 74 205 7.0 10.4 0.00 0.00 0.00 40 1007.1
20260901211554 74 200 6.1 8.7 0.00 0.00 0.00 41 1007.1
20260901211034 74 200 4.3 7.8 0.00 0.00 0.00 41 1007.2
20260901210535 73 200 3.5 9.6 0.00 0.00 0.00 44 1007.2
20260901210100 71 200 5.2 10.4 0.00 0.00 0.00 47 1007.2
20260901205538 71 200 7.0 10.4 0.00 0.00 0.00 46 1007.7
20260901205031 71 200 7.0 12.2 0.00 0.00 0.00 45 1007.7